sat.trackr.live / text

‹ back to catalog

STARLINK-4681

NORAD 53594 · 2022-104G

PAYLOAD ACTIVE UNKNOWN

§ Identity

Operator
Country
US
Launch date
2022-08-28
Launch site
AFETR
Launch vehicle
Mass (kg)
RCS (m²)

Purposes: comms

External: N2YO · Heavens-Above · Gunter

§ Orbital elements

Epoch: 2026-05-25T04:00:03.998880Z

Period
91.46 min
Inclination
53.2171°
Eccentricity
0.0000983
Mean motion
15.74402301 rev/d
Perigee alt
345.7 km
Apogee alt
347.0 km
Semi-major
6,724.5 km
B*
4.2477e-3
RAAN
243.2213°
Arg perigee
49.4007°
Mean anomaly
152.0773°
Rev number
591

§ Raw data

STARLINK-46811 53594U 22104G   26145.16671295  .00680646  00000+0  42477-2 0  99952 53594  53.2171 243.2213 0000983  49.4007 152.0773 15.74402301  5915

JSON: /api/v1/satellites/53594 · /tle

For live sub-satellite position, see the globe view (requires WebGL).

§ Visibility from observer

Set your observer location to see the next 7 days of passes ≥ 10°. The values pass through the URL so the page stays shareable.

No JS? Fill the form by hand. The geolocation button needs JavaScript.